Theta_e
337 336 337 337 338 338 337 336 336 334 334 334 334 333 334 334 334 334 335 335 333 334 333 334 334 334 334 334 335 335 335 334 332 330 330 330 329 329 333 330 329 333 334 331 329 324 321 318 320 331 335 337 338 339 340 339 338 337 338 338 338 338 338
338 337 336 337 336 337 335 333 333 333 333 334 334 334 334 334 334 334 335 334 333 334 333 334 334 334 335 334 334 334 334 334 333 333 333 331 331 329 330 330 333 331 329 329 329 330 325 320 318 321 325 331 333 338 339 340 339 338 339 338 337 337 338
336 335 335 334 335 335 332 332 332 332 332 333 334 333 333 332 333 334 334 334 334 335 333 334 335 335 334 334 334 335 335 334 334 334 332 332 333 331 329 331 330 327 327 328 326 328 329 328 321 321 323 326 323 329 335 338 339 338 339 339 338 338 337
334 334 333 331 331 332 330 330 330 330 331 331 332 333 333 333 334 334 333 334 334 334 333 333 333 334 334 334 334 335 335 334 334 334 333 332 332 332 332 330 329 330 326 321 324 325 324 321 321 323 325 326 325 329 332 334 336 338 338 338 337 336 335
333 332 330 329 329 330 330 329 329 329 330 331 331 331 331 332 332 332 332 333 332 333 331 331 332 332 333 334 333 334 333 334 334 334 335 333 332 330 330 331 328 330 328 330 330 324 325 324 324 323 325 325 328 326 327 337 336 338 338 336 336 336 336
332 331 329 328 329 328 327 327 328 327 328 328 329 329 330 331 330 330 330 331 330 330 330 329 330 331 332 333 333 333 333 333 333 333 333 334 334 332 331 334 333 332 328 330 333 331 327 325 322 320 324 327 324 325 329 335 329 333 337 338 338 338 338
331 330 330 329 329 328 328 327 327 327 326 328 327 328 329 329 328 329 330 330 330 329 329 329 329 330 332 332 332 332 332 333 333 333 333 336 335 335 334 333 333 332 331 329 332 332 329 324 322 321 323 325 328 322 326 330 330 328 332 337 338 340 340
331 329 328 328 328 327 327 327 327 327 326 327 327 328 328 328 328 328 328 328 328 328 328 328 329 330 331 332 332 333 332 332 333 332 332 334 334 335 335 333 332 333 332 332 331 331 332 328 327 323 322 321 323 324 322 326 328 327 329 332 338 339 339
329 328 327 328 327 327 327 327 326 326 326 326 327 327 327 327 326 325 326 326 326 326 326 327 329 329 330 330 330 331 331 332 331 331 331 332 333 332 332 333 333 332 333 332 331 332 332 332 330 329 326 323 320 318 322 322 325 326 329 329 334 337 338
327 326 326 327 327 327 326 326 325 325 326 326 325 325 325 325 324 324 324 324 323 324 325 326 326 327 329 330 330 330 329 331 331 331 330 330 330 329 328 329 328 329 329 330 331 330 330 331 332 331 330 326 322 320 318 319 321 324 328 329 328 335 337
325 325 325 325 326 325 325 325 324 324 324 324 324 324 324 323 323 323 323 322 323 323 324 325 325 326 328 329 329 327 326 327 327 327 327 326 326 326 325 325 325 324 326 327 328 329 330 329 329 329 330 330 329 323 320 317 319 325 327 332 335 334 338
325 325 325 325 325 324 323 322 323 323 323 323 322 323 322 322 322 322 322 321 322 323 323 323 325 325 326 325 324 324 324 325 324 324 325 324 324 324 323 323 322 322 322 323 324 326 328 329 327 328 329 330 329 327 324 322 318 325 331 327 334 336 335
323 323 323 323 322 322 321 322 322 321 320 320 321 321 321 321 321 321 321 321 322 323 322 323 323 324 324 323 322 322 323 323 322 322 323 322 322 322 321 320 320 320 320 321 322 323 324 326 329 330 330 329 329 330 328 323 320 319 327 331 334 334 334
322 321 322 322 322 321 321 321 320 320 320 319 320 320 320 320 320 321 321 321 321 322 322 322 322 322 322 321 321 320 320 320 320 320 321 320 321 320 319 318 318 318 320 320 320 321 321 322 325 329 331 329 326 328 328 325 321 320 326 333 329 329 332
321 322 321 321 320 319 319 319 319 319 318 318 319 318 319 320 321 322 321 321 321 322 322 321 321 321 319 319 319 319 320 319 319 318 319 318 318 319 319 317 317 318 319 318 318 318 318 319 320 323 325 328 326 323 328 326 323 322 320 328 329 330 331
319 319 320 320 319 318 317 318 319 318 317 317 318 318 319 320 320 321 321 320 320 320 320 320 320 319 318 318 318 319 319 319 318 317 317 317 317 317 317 317 317 317 318 317 317 317 318 318 319 319 320 323 324 326 326 328 325 322 321 321 324 325 328
318 319 318 317 317 317 317 317 317 317 317 317 317 318 319 319 319 320 320 319 318 318 319 319 319 318 318 318 318 318 318 318 317 316 316 316 316 316 315 315 315 315 315 314 314 315 316 317 317 317 317 320 322 324 327 328 326 322 323 322 325 324 324
317 317 316 315 315 316 316 316 317 316 317 316 317 318 318 319 319 319 319 319 317 317 317 318 318 317 318 318 317 317 317 317 317 317 317 317 317 316 314 313 313 314 313 312 312 313 314 315 316 316 316 317 319 322 324 325 325 324 323 322 322 325 326
315 315 314 314 314 315 315 315 315 315 315 315 316 317 317 317 319 316 317 317 317 316 317 317 317 316 317 318 317 317 317 317 317 316 316 317 316 316 314 313 312 312 311 310 310 311 313 314 315 315 316 316 317 320 321 322 320 319 319 318 319 318 320
314 314 313 313 314 314 314 314 314 313 314 315 316 316 316 316 316 316 316 315 316 315 314 314 315 317 317 317 317 316 317 317 317 317 316 316 317 316 315 313 312 311 310 310 310 310 311 313 313 314 315 315 316 318 318 318 316 315 314 312 313 314 313
314 314 313 313 313 313 313 313 313 313 313 314 315 316 316 315 316 316 315 313 313 313 311 310 310 312 317 317 316 315 315 315 315 315 316 315 316 316 315 313 312 311 310 309 310 309 309 311 312 312 313 315 315 315 315 315 314 312 310 309 308 309 310
315 314 313 313 313 312 312 313 313 314 314 315 315 316 316 315 315 313 312 312 311 310 309 308 306 306 311 315 314 314 313 313 313 313 314 314 314 314 314 314 312 311 311 309 305 305 304 304 308 308 309 311 313 313 314 314 313 311 309 308 307 307 307
314 314 313 312 312 313 313 313 313 314 315 314 315 315 315 314 313 312 311 310 310 309 307 306 300 296 298 308 313 312 312 312 311 311 311 312 312 312 312 314 313 309 309 308 304 301 299 300 302 304 305 307 308 310 311 311 310 310 309 306 305 305 304
314 313 313 313 313 313 313 313 313 314 313 314 314 313 313 312 312 311 310 309 308 308 306 303 295 294 295 296 309 311 310 310 310 309 309 309 310 310 310 311 312 311 309 309 309 299 299 298 297 298 298 299 301 305 307 308 308 308 307 305 304 304 303
313 313 313 313 314 314 314 314 312 313 312 312 312 313 312 311 311 311 310 309 308 307 305 296 293 294 294 294 299 311 310 309 308 308 307 307 308 308 308 308 309 310 309 308 310 312 306 299 298 298 297 297 297 296 296 304 306 306 306 305 303 302 303
312 312 312 314 314 314 311 311 311 311 311 312 312 311 310 310 309 309 309 308 307 306 306 294 293 294 294 294 295 304 309 309 307 306 306 307 307 307 307 307 307 307 308 307 308 307 310 311 302 300 300 301 300 298 294 294 297 306 307 305 304 302 302
312 313 314 313 311 311 311 310 311 311 311 311 310 310 310 309 309 308 308 307 306 306 304 295 292 293 293 293 294 301 309 308 307 305 305 305 306 307 306 306 305 305 306 307 306 304 308 311 311 311 310 309 308 305 300 298 298 298 302 306 305 303 304
313 314 313 310 310 310 309 310 309 310 310 309 308 308 308 308 308 308 307 306 305 305 302 291 292 292 292 293 293 301 309 309 307 306 305 304 305 305 306 306 305 304 305 305 303 298 305 309 310 310 309 308 308 307 308 308 307 308 307 307 306 306 306
311 311 310 310 309 309 309 309 308 308 308 308 308 308 308 308 307 307 306 306 305 303 302 291 291 292 292 292 294 309 308 307 307 306 305 304 303 304 305 305 305 304 304 303 297 292 295 306 309 308 307 307 307 307 308 304 299 301 307 309 309 308 308
310 309 309 308 308 308 307 307 307 308 307 307 307 307 307 306 307 307 306 305 304 303 303 295 291 291 292 291 301 308 308 306 306 306 305 305 303 302 302 302 303 303 303 301 294 291 291 298 307 307 307 306 306 306 305 308 300 296 296 296 296 295 295
309 308 308 307 307 307 308 308 308 308 306 306 305 306 305 305 305 305 305 304 303 302 302 296 291 291 292 291 297 306 306 306 306 305 305 305 304 303 301 297 299 301 301 299 291 291 290 302 305 305 306 305 304 303 304 306 308 307 298 299 298 298 297
308 307 307 307 307 306 307 307 307 307 306 306 306 306 305 304 304 304 305 304 301 302 302 299 292 291 291 291 298 308 305 305 304 304 304 303 304 303 302 300 296 294 296 294 289 290 291 298 305 305 305 304 303 303 303 305 305 305 306 306 307 307 306
307 307 306 306 307 306 307 307 306 306 306 305 305 305 304 304 304 303 304 304 304 304 302 300 296 290 291 292 291 303 306 304 303 303 303 302 302 302 302 302 299 291 289 290 290 289 291 291 303 304 304 303 303 301 305 305 304 305 305 304 305 306 306
307 307 307 306 306 306 306 306 306 306 305 305 304 304 304 304 303 303 303 302 301 302 302 301 298 289 291 291 290 295 306 304 304 303 303 301 302 301 300 300 301 293 289 290 290 290 290 291 293 303 302 302 302 300 300 306 305 301 305 305 305 305 305
307 307 307 307 306 305 306 306 305 305 304 304 304 304 303 303 302 302 302 302 301 300 299 297 300 293 290 290 290 290 301 303 303 304 302 301 300 301 300 299 299 294 289 290 290 290 290 291 293 302 300 291 291 292 304 305 305 305 304 303 303 302 303
306 306 306 306 305 305 305 305 305 305 305 304 304 303 303 303 302 300 301 301 301 300 300 298 293 297 291 290 290 291 290 296 293 303 301 300 300 300 300 300 299 293 290 290 290 290 291 291 296 298 290 291 292 293 298 304 304 304 302 302 302 301 301
306 306 306 305 304 304 303 303 303 303 303 302 302 302 301 302 301 300 299 299 300 300 300 299 295 292 295 290 291 290 290 290 292 300 301 300 300 299 299 300 297 290 291 291 291 291 292 292 297 291 291 292 294 296 303 303 303 303 301 300 300 300 301
Wind_Speed
4 4 4 3 2 1 3 3 2 2 3 3 3 3 3 3 4 4 5 5 5 5 6 6 6 7 7 7 8 9 9 9 9 9 11 11 10 9 8 9 11 11 10 10 11 11 12 13 11 7 8 7 9 10 11 11 11 11 11 11 11 11 10
3 3 3 2 2 2 3 2 2 2 2 2 3 3 4 4 4 5 5 5 6 6 6 6 6 8 8 9 9 9 9 9 8 8 8 9 9 10 10 8 7 7 9 9 9 10 9 9 11 11 9 4 10 10 10 10 10 10 11 11 11 11 10
2 2 2 2 1 1 2 2 2 2 3 3 3 4 5 6 5 5 5 6 6 6 6 7 8 8 8 9 9 9 9 10 8 7 8 9 9 9 9 10 9 8 10 7 6 7 8 9 10 9 10 7 8 8 8 10 12 11 11 10 11 11 10
3 3 3 2 2 2 2 2 2 2 3 3 3 3 4 6 5 6 6 6 6 6 6 7 7 8 8 8 9 10 9 9 8 9 8 8 8 8 8 8 9 8 6 10 10 7 7 8 8 10 10 9 11 9 6 9 12 12 11 10 10 11 11
3 3 3 3 2 3 3 2 2 3 3 3 4 4 5 6 6 6 6 6 6 6 7 7 7 8 8 8 8 9 9 9 8 8 8 9 10 8 9 6 8 9 9 7 6 8 8 8 9 11 10 11 11 10 9 6 9 9 10 10 11 11 11
4 4 4 3 2 2 3 3 3 3 3 3 5 5 5 7 6 6 6 6 6 7 7 7 7 8 7 7 8 9 10 11 9 9 7 9 9 9 9 8 7 7 7 7 8 8 8 8 8 9 12 10 12 11 10 4 3 7 9 10 11 11 11
5 4 4 4 3 3 4 4 4 4 4 4 5 5 6 7 6 6 6 7 7 8 8 8 8 7 8 8 8 9 11 9 10 10 8 9 9 10 10 9 9 8 8 8 9 8 7 8 10 10 10 10 8 10 9 6 7 8 9 9 10 10 10
4 4 4 4 4 4 4 4 5 4 5 5 5 6 7 7 7 7 8 7 8 8 8 8 8 7 8 9 8 9 9 9 10 10 9 10 10 12 11 10 10 8 9 8 7 7 7 7 8 11 10 11 9 7 9 10 8 11 10 8 10 11 10
4 5 4 3 4 4 5 5 5 5 5 5 5 6 7 7 8 8 7 8 8 8 8 9 8 8 8 9 9 9 10 9 10 12 10 10 11 13 13 12 10 10 9 9 9 8 8 6 6 7 10 9 9 10 8 8 9 10 11 10 9 10 10
6 5 4 5 5 6 6 5 5 6 5 6 6 6 7 8 7 8 7 7 8 8 9 9 9 9 9 8 9 10 11 11 11 12 12 12 12 12 11 13 12 11 10 10 9 9 9 9 8 7 6 7 8 9 8 9 9 8 3 9 10 7 10
5 5 5 5 6 6 6 6 5 5 6 6 6 6 6 7 7 7 7 7 8 8 9 9 9 9 9 9 10 9 10 10 10 9 10 10 11 10 11 10 11 10 11 11 11 11 9 8 8 8 7 5 5 8 9 9 11 8 6 6 6 6 5
5 5 6 6 6 7 7 6 6 6 6 6 6 7 7 7 7 7 7 8 8 9 9 10 10 10 10 8 9 8 10 10 9 9 9 10 9 10 12 12 12 11 11 11 11 11 11 9 9 9 8 7 6 6 7 8 10 7 4 6 5 6 5
5 6 6 7 7 7 6 6 6 7 7 6 7 7 7 7 8 8 8 8 9 9 10 10 10 10 9 9 9 10 11 11 11 10 10 11 9 10 12 13 13 12 12 12 11 10 11 11 11 9 8 8 8 6 6 7 9 12 9 8 5 4 7
6 6 7 7 7 7 7 7 7 6 7 7 7 7 7 8 8 8 9 9 10 10 10 11 10 10 10 11 10 10 11 11 12 11 11 13 12 12 12 13 14 15 15 13 11 11 11 12 12 10 8 8 8 7 7 8 9 11 9 3 5 5 4
6 6 8 7 7 7 7 7 6 6 8 7 7 8 8 7 8 9 9 10 10 10 10 11 11 10 10 10 11 9 10 12 13 13 12 13 14 12 13 14 16 16 15 15 14 13 12 11 12 11 11 10 9 8 8 9 9 8 9 5 3 3 4
7 8 8 8 8 7 7 7 7 8 7 7 8 8 8 9 9 10 10 10 10 10 11 10 10 10 10 10 11 11 11 12 12 13 14 14 15 14 13 14 15 15 13 15 15 14 14 14 11 11 12 11 11 9 8 7 8 7 6 5 3 4 3
8 8 8 8 8 8 7 8 8 8 8 8 8 8 9 9 9 9 10 10 10 10 10 10 10 10 10 10 10 11 11 11 11 12 13 14 13 13 13 13 14 15 15 15 15 14 15 15 14 13 13 11 11 12 8 7 8 8 6 6 4 5 4
8 8 9 8 8 8 8 8 8 9 8 9 9 8 8 9 8 9 9 10 11 10 10 10 11 11 10 10 10 10 11 11 11 11 12 12 13 13 12 13 14 14 15 15 15 15 15 18 15 14 14 12 12 12 11 10 10 9 9 9 8 6 6
8 9 9 8 8 8 8 8 8 8 9 9 8 8 9 8 10 11 9 10 10 10 10 10 11 11 11 10 10 10 11 11 11 11 12 12 12 12 12 13 13 14 15 16 15 15 15 17 16 16 16 14 14 12 12 12 13 14 13 12 12 11 11
8 8 9 8 7 8 8 9 9 9 8 9 8 8 9 9 9 9 11 10 11 11 9 9 9 10 10 10 10 10 11 11 11 11 12 12 12 12 13 12 13 14 15 15 16 16 15 16 14 16 16 15 15 13 12 12 13 13 13 13 12 12 10
8 8 8 8 8 8 8 9 9 8 8 9 9 9 10 10 9 10 10 9 9 9 9 10 10 10 9 10 9 10 10 10 11 11 12 12 13 13 13 12 13 13 14 14 15 15 16 13 12 13 14 15 14 14 13 12 12 12 12 11 12 12 11
8 9 9 8 9 9 9 9 9 9 8 9 8 9 10 10 11 10 9 9 10 9 9 10 9 10 9 9 9 9 10 11 11 11 12 13 13 13 13 12 12 12 10 8 12 12 15 15 13 13 14 13 14 15 13 12 12 12 11 11 11 10 10
8 9 9 9 9 9 9 9 9 9 10 10 9 9 9 9 10 10 10 10 9 9 9 8 11 15 13 9 8 8 9 10 11 11 11 12 13 13 14 12 12 13 11 5 7 10 9 12 17 17 16 16 14 13 14 13 12 12 12 12 13 13 13
9 9 9 9 10 10 10 9 9 10 10 9 10 9 9 10 9 9 10 10 10 9 9 9 15 15 15 17 9 9 10 11 11 12 12 11 11 11 12 13 12 13 13 12 5 9 10 9 9 13 16 17 17 16 13 13 13 13 12 12 11 12 13
10 10 9 10 10 10 10 10 10 9 8 9 8 9 10 10 10 9 9 10 10 9 9 13 15 15 15 15 13 8 10 10 11 11 12 12 11 11 11 11 11 10 12 14 12 6 8 8 8 9 13 16 15 14 13 13 12 12 14 13 13 13 13
10 10 9 10 9 10 10 9 9 9 10 9 9 10 10 10 10 10 10 10 10 10 9 15 14 15 14 14 13 9 10 11 12 13 13 12 12 12 11 11 11 11 10 15 12 13 10 6 6 8 10 13 15 13 11 11 11 12 12 13 13 14 14
10 10 10 11 10 9 9 10 9 8 9 9 10 10 11 12 11 11 10 10 10 10 10 13 14 15 14 13 12 9 10 11 12 13 14 13 12 12 12 12 12 12 12 13 13 15 12 10 10 10 11 12 13 15 16 15 14 14 15 13 13 13 14
10 10 11 10 10 10 10 9 9 8 8 9 9 10 10 10 10 10 10 10 10 9 9 14 14 15 14 14 12 10 10 9 10 12 13 14 14 13 12 12 13 13 13 14 13 16 14 10 10 9 11 11 12 10 11 12 13 14 13 13 14 14 13
11 11 11 10 11 11 10 10 10 8 8 9 9 9 9 9 10 10 10 10 10 10 10 15 15 16 16 16 13 7 9 10 10 10 12 14 15 13 12 12 12 13 14 14 18 21 18 12 11 10 11 12 12 11 8 4 6 3 5 8 9 9 9
11 11 11 11 11 11 10 10 9 8 9 9 9 9 9 9 9 9 10 10 10 10 11 14 16 16 17 18 12 7 7 8 9 10 10 11 13 14 13 14 12 12 13 14 17 19 21 16 12 11 11 11 11 12 13 5 7 6 3 3 4 7 7
11 11 11 11 11 10 9 9 9 7 8 9 9 9 9 9 10 10 10 11 10 10 11 13 17 16 17 17 14 7 7 7 8 9 9 10 10 12 14 18 16 12 12 13 18 19 22 15 12 12 12 11 12 13 13 12 10 7 5 3 3 0 7
11 11 11 10 10 10 9 8 8 8 8 8 8 8 8 9 9 9 10 11 12 11 11 12 16 16 17 17 13 5 7 7 8 8 7 9 9 9 11 12 15 14 12 13 16 17 19 17 11 12 12 11 12 13 13 13 13 13 13 13 13 14 13
11 11 11 10 9 9 8 8 8 8 7 7 8 8 8 8 10 9 9 9 9 9 10 10 12 15 16 17 18 9 7 6 7 8 8 8 8 9 10 10 11 15 15 15 15 16 16 18 12 12 11 11 12 11 12 12 12 12 13 13 13 14 14
12 11 10 10 9 9 8 8 7 7 8 7 8 8 9 9 9 9 9 10 10 10 8 9 11 14 15 16 17 15 6 7 7 7 7 8 8 9 9 10 9 12 13 13 15 16 15 16 14 12 12 11 9 11 11 10 11 12 12 13 14 14 13
11 10 9 9 9 9 8 8 7 8 8 8 9 9 8 8 9 9 9 9 9 10 10 11 8 12 13 14 15 17 9 8 9 6 7 8 8 8 9 9 8 10 11 11 12 14 15 14 14 12 12 13 14 14 9 10 10 11 11 12 14 14 14
10 8 9 9 10 9 8 7 8 8 8 8 9 9 8 8 8 8 7 7 7 8 8 9 10 10 12 12 13 13 13 10 13 7 7 8 8 8 8 9 8 10 10 10 10 11 13 14 13 11 14 14 13 13 10 10 10 11 11 12 13 14 14
9 9 10 9 9 9 8 8 8 7 7 7 7 7 7 7 7 7 7 7 6 7 7 8 9 9 10 11 10 11 12 13 13 8 8 8 8 8 9 8 7 10 10 10 8 8 12 12 10 13 14 14 13 12 11 11 11 11 11 12 14 13 14
Wind_Direction
89 125 140 102 77 94 76 57 53 48 19 354 353 355 349 350 341 325 325 324 317 318 321 320 324 327 324 324 326 314 307 308 313 310 311 312 318 312 304 304 298 281 270 266 262 276 284 291 281 242 259 285 254 234 231 230 226 224 226 226 219 215 216
108 122 126 142 134 79 59 55 47 41 41 27 17 13 351 351 341 334 328 330 329 332 329 328 330 331 330 328 331 327 328 323 320 318 312 317 314 310 310 302 303 296 285 280 277 269 270 274 276 269 270 238 253 244 229 232 229 226 225 222 221 219 213
127 121 101 79 70 58 71 44 51 54 20 32 20 17 5 355 341 339 338 338 337 341 338 337 334 335 335 332 330 326 331 326 332 329 326 318 312 305 304 309 305 316 304 286 261 272 265 250 267 278 273 278 265 252 242 230 222 224 221 219 220 216 214
74 75 119 104 93 87 76 66 61 63 41 38 11 13 10 356 354 356 350 347 348 347 343 343 339 338 335 332 331 331 336 335 336 335 329 328 319 314 312 310 313 310 306 301 306 286 266 283 282 278 269 249 259 266 247 242 237 215 214 217 219 219 220
76 100 91 97 96 92 61 59 50 43 35 32 16 6 12 7 2 1 358 354 357 357 358 349 344 340 338 338 341 339 337 334 335 338 338 341 336 326 321 334 318 316 307 297 289 292 285 288 287 284 286 288 284 271 276 272 256 231 216 221 220 218 215
82 89 99 101 95 78 63 54 48 44 39 24 18 3 14 7 5 360 359 360 3 6 355 350 349 348 347 345 350 343 339 340 340 342 343 344 334 332 333 324 315 325 296 290 307 309 303 288 282 284 286 287 286 288 286 271 272 270 247 224 224 224 216
89 88 80 80 65 54 52 54 52 39 33 24 16 17 11 6 6 5 4 7 6 6 359 355 354 351 354 354 351 355 348 350 347 346 347 343 340 341 337 331 331 321 332 327 330 324 311 302 292 287 291 286 277 281 275 260 255 257 246 232 229 221 214
106 93 77 70 57 50 50 58 54 42 29 24 19 16 14 12 13 8 9 9 10 8 6 3 1 3 2 352 360 1 1 354 351 348 350 348 345 348 344 344 332 330 337 342 336 329 330 324 305 295 288 289 292 279 286 279 264 250 261 253 220 219 213
91 90 89 74 62 48 60 58 56 37 30 24 27 18 18 17 14 7 11 15 12 12 11 11 8 11 3 1 4 8 1 357 350 357 353 354 357 354 350 347 342 342 342 341 334 331 324 316 311 310 314 299 298 292 280 274 268 259 249 259 238 222 213
86 90 78 63 65 71 69 63 51 42 37 32 24 19 15 15 16 12 16 19 16 13 14 15 13 3 352 354 12 14 6 1 1 1 6 358 3 359 356 356 352 347 348 338 335 334 330 327 324 316 316 319 308 294 296 288 282 281 298 269 262 227 217
93 80 67 70 76 74 70 62 49 46 39 34 28 23 19 19 18 18 19 20 18 18 17 17 12 6 7 13 12 18 11 2 4 7 10 4 4 1 359 1 358 351 348 341 336 335 334 331 330 328 327 320 319 315 305 296 296 290 287 260 241 254 198
87 82 81 81 81 74 64 55 54 49 41 34 31 30 28 26 23 23 24 22 22 22 20 20 17 19 16 18 15 14 13 9 10 10 11 7 5 2 1 3 2 356 351 344 338 338 337 336 335 331 332 327 326 319 316 311 302 304 274 269 251 222 210
79 75 78 81 78 71 64 58 57 54 45 40 39 37 38 34 32 32 30 30 29 27 27 25 25 25 25 27 24 21 18 17 18 17 14 12 7 8 6 9 7 1 355 348 347 342 341 339 336 335 336 332 327 332 327 314 309 305 301 282 280 229 208
88 89 84 83 80 70 64 57 55 55 52 48 43 45 44 39 37 38 39 39 34 35 34 32 31 29 30 30 29 26 22 23 23 22 19 19 19 18 15 13 10 8 5 2 358 352 350 344 336 336 340 336 332 338 336 331 324 321 325 356 334 325 286
89 91 91 86 79 71 63 61 61 61 60 53 49 46 45 41 40 44 42 35 37 34 34 35 32 32 30 29 31 28 27 28 31 31 26 24 23 20 19 16 15 12 9 10 7 5 357 350 345 343 344 339 340 342 340 342 339 336 337 1 358 3 335
94 92 85 79 77 75 71 66 62 64 61 59 52 45 44 46 41 38 42 39 35 32 32 33 32 30 30 31 32 34 33 34 34 30 30 30 27 25 22 20 17 12 6 10 10 8 5 360 355 355 350 346 341 343 342 341 340 332 328 341 353 330 338
100 92 85 79 76 74 71 69 68 67 63 56 55 50 46 46 44 39 41 41 40 35 33 34 34 33 34 32 33 34 36 38 36 34 35 34 30 26 23 21 18 14 11 12 10 8 7 3 2 359 356 356 349 341 338 348 353 341 344 340 8 349 343
94 88 84 80 77 75 73 72 67 64 62 59 55 53 50 47 54 54 40 33 41 39 38 38 41 40 40 40 41 42 39 37 37 36 32 33 37 33 29 25 20 18 18 17 13 12 6 8 8 7 5 4 357 355 1 3 359 2 358 3 359 354 340
92 88 85 82 78 76 75 72 70 64 59 61 58 57 56 48 31 46 46 48 46 46 47 47 43 41 44 46 48 45 43 43 41 39 37 37 40 40 36 33 28 26 25 25 19 13 12 14 15 15 13 12 10 8 13 18 23 23 19 19 18 14 13
92 89 87 85 83 81 77 73 69 66 62 62 62 62 61 62 61 56 55 53 49 47 37 25 25 38 44 43 40 36 40 40 42 40 37 36 36 38 41 37 37 35 32 30 27 20 17 22 23 22 23 20 19 16 24 28 29 30 29 25 22 22 12
99 94 93 90 86 82 78 76 73 71 67 66 66 67 67 69 70 65 59 50 45 37 32 27 17 5 32 41 37 34 33 34 40 40 39 37 36 38 42 41 36 37 40 38 31 29 22 17 16 24 22 28 27 24 25 26 28 32 32 30 26 16 14
103 102 99 97 93 88 83 79 78 78 79 77 71 70 76 70 69 68 59 52 48 42 39 31 22 5 0 33 40 40 37 37 35 38 40 42 41 39 41 46 38 28 26 38 44 40 39 31 25 23 16 13 22 29 30 28 29 31 32 30 26 22 15
106 103 102 99 94 90 87 84 83 83 81 80 78 78 78 70 69 66 64 59 53 47 41 34 359 358 4 355 35 41 44 39 37 37 37 42 42 39 39 36 42 32 14 44 63 58 49 42 47 46 36 31 21 21 28 32 30 29 30 29 26 19 19
107 105 105 102 99 97 94 93 91 88 85 83 82 81 74 71 68 66 66 64 58 55 44 19 355 9 3 359 6 50 46 43 41 39 38 37 36 35 32 29 27 31 24 14 87 90 69 67 59 53 49 44 39 35 24 25 33 31 29 33 28 24 22
108 107 107 106 103 100 99 97 92 91 86 81 78 79 75 73 73 70 68 67 63 58 50 9 4 6 3 1 355 38 51 49 42 40 39 36 35 32 30 30 25 22 23 9 360 35 86 85 80 80 71 58 45 39 35 33 26 30 29 29 28 25 18
109 109 107 102 100 98 94 98 93 88 84 83 84 79 77 76 75 72 69 67 63 56 49 11 3 2 360 356 355 27 58 51 48 45 39 37 35 32 30 28 30 22 22 10 10 356 3 53 104 92 72 70 63 48 36 42 40 31 32 32 29 27 22
114 116 113 103 105 105 100 93 94 92 93 89 85 83 80 78 77 73 71 73 67 56 42 2 2 1 358 352 349 37 60 59 55 49 44 38 33 32 31 31 27 26 21 20 12 356 344 26 27 33 34 37 40 46 43 33 36 41 36 36 32 30 24
118 112 107 107 106 103 100 100 97 96 93 89 87 87 83 80 78 76 75 71 68 59 39 6 7 2 358 354 337 54 56 59 60 56 50 43 38 32 32 34 34 30 25 21 9 348 345 7 36 38 39 38 35 47 43 44 42 35 36 36 37 34 29
119 120 119 115 109 104 101 99 98 97 96 92 89 88 85 83 81 78 74 70 68 61 43 16 7 6 359 356 328 61 59 59 58 57 57 53 45 38 30 30 35 33 27 23 2 351 349 350 35 33 38 39 35 37 60 99 81 79 22 27 30 25 20
117 117 115 112 109 106 106 104 102 102 99 96 93 87 85 80 77 75 72 71 68 61 48 19 11 10 2 358 343 66 59 62 61 56 55 59 56 49 38 25 29 30 28 21 358 355 354 342 39 30 34 37 37 37 31 49 150 154 199 234 251 276 289
118 116 114 112 110 109 107 104 105 105 101 102 96 92 91 85 79 72 67 66 63 64 53 26 16 10 3 2 341 55 59 62 63 62 61 57 61 60 51 39 23 25 23 16 359 359 358 352 34 28 30 30 33 37 34 24 25 44 157 163 54 286 21
116 114 112 111 112 112 108 106 108 106 104 102 100 99 93 90 86 80 75 73 62 60 57 37 18 9 6 5 355 41 57 67 54 53 64 64 58 55 58 50 33 19 14 5 3 2 4 359 33 25 30 32 32 26 33 25 20 27 28 29 25 26 25
114 114 113 113 112 109 111 112 111 112 109 105 103 99 96 90 87 83 78 70 63 59 59 49 26 11 15 8 2 358 66 58 60 63 54 56 60 58 53 52 39 16 1 9 8 8 7 4 15 32 26 32 27 4 5 36 24 20 31 31 31 28 27
113 113 114 115 114 113 111 111 112 110 106 102 102 100 99 97 92 88 81 74 68 58 41 50 45 23 19 15 12 0 65 41 53 57 60 58 58 55 55 49 45 10 356 5 12 10 7 8 6 32 21 21 353 318 311 28 23 15 31 29 32 30 28
110 112 117 119 117 111 110 112 114 114 111 112 112 107 103 99 94 90 86 79 77 77 55 29 47 42 25 23 19 14 23 38 352 62 58 65 59 62 57 52 40 359 349 2 9 13 10 7 15 29 1 342 334 338 7 31 25 24 30 32 33 31 28
116 118 120 120 117 115 115 115 113 112 116 115 111 107 100 100 97 92 90 87 89 83 79 64 30 46 38 27 25 25 17 14 342 45 64 66 63 63 61 53 38 355 350 355 0 13 18 4 26 6 346 345 341 353 19 33 31 30 29 33 35 32 29
117 122 124 122 119 119 121 125 125 122 123 121 118 111 108 107 102 97 94 92 90 91 87 80 65 44 49 37 37 31 27 22 9 52 61 73 64 61 59 47 20 351 353 349 357 20 23 14 6 357 360 359 12 23 29 31 32 34 30 30 35 33 32